Regional Weather Roundup
Issued by NWS

Home | Current Version | Previous Version | Text Only | Print | Product List | Glossary On
Versions: 1 2 3 4 5 6 7 8 9 10 11 12 13 14 15 16 17 18 19 20 21 22 23 24 25 26 27 28 29 30 31 32 33 34 35 36 37 38 39 40 41 42 43 44 45 46 47 48 49 50
950
ASUS44 KJAN 291403
RWRMS

MISSISSIPPI HOURLY WEATHER ROUNDUP
NATIONAL WEATHER SERVICE JACKSON MS
900 AM CDT SUN MAR 29 2015

NOTE: "FAIR: INDICATES FEW OR NO CLOUDS BELOW 12,000 FEET WITH NO
SIGNIFICANT WEATHER AND/OR OBSTRUCTIONS TO VISIBILITY.

MSZ001>002-007>008-010>013-018>021-025>028-034>036-291500-
NORTHWEST MISSISSIPPI

CITY           SKY/WX    TMP DP  RH WIND       PRES   REMARKS
CLARKSDALE     CLOUDY    45  32  61 SE14      30.26S
CLEVELAND      CLOUDY    46  35  64 SE14G21   30.24F
GREENWOOD      CLOUDY    48  29  47 SE14      30.27F
GREENVILLE     CLOUDY    48  34  58 SE16      30.24F
OLIVE BRANCH   PTSUNNY   41  27  56 SE12G23   30.25F
OXFORD         PTSUNNY   41  27  56 SE13G18   30.30R
TUNICA         CLOUDY    43  32  65 SE12      30.26S
$$

MSZ003>006-009-014>017-022>024-029>033-037>039-291500-
NORTHEAST MISSISSIPPI

CITY           SKY/WX    TMP DP  RH WIND       PRES   REMARKS
COLUMBUS AFB   CLOUDY    45  28  51 SE10      30.34R
CORINTH        FAIR      43  23  45 SE12G17   30.30S
GOLDN TRIANGLE CLOUDY    45  27  49 SE12G18   30.33R
STARKVILLE     CLOUDY    45  32  61 SE7       30.33S
TUPELO         CLOUDY    44  25  47 S10       30.32S
$$

MSZ040-058-291500-
CENTRAL MISSISSIPPI

CITY           SKY/WX    TMP DP  RH WIND       PRES   REMARKS
JACKSON INTL   PTSUNNY   48  31  51 SE13      30.31R
JACKSON HAWKNS CLOUDY    47  31  53 SE14      30.30R
MERIDIAN KEY   PTSUNNY   50  28  42 SE12G17   30.34R
MERIDIAN NAS   NOT AVBL
RAYMOND        CLOUDY    48  45  87 SE9G15    30.29S
VICKSBURG      PTSUNNY   50  36  58 SE14      30.27S
$$

MSZ059>079-291500-
SOUTH MISSISSIPPI

CITY           SKY/WX    TMP DP  RH WIND       PRES   REMARKS
BROOKHAVEN     FAIR      48  36  61 SE7       30.31S
HATTIESBURG    SUNNY     49  34  56 SE8       30.34S
MCCOMB         MOSUNNY   50  37  61 SE7       30.30R
NATCHEZ        MOSUNNY   54  39  58 SE14      30.27R
PINE BELT      SUNNY     46  30  53 E9        30.33R
$$

MSZ080>082-291500-
COASTAL MISSISSIPPI

CITY           SKY/WX    TMP DP  RH WIND       PRES   REMARKS
BAY ST LOUIS   MOSUNNY   54  39  58 E6        30.32R
BILOXI         SUNNY     54  41  61 E9        30.32S
PASCAGOULA     SUNNY     53  38  56 E9        30.35R
GULFPORT       SUNNY     54  42  64 E14       30.32S
$$



USA.gov is the U.S. government's official web portal to all federal, state and local government web resources and services.